Time,TemperatureF,DewpointF,PressureIn,WindDirection,WindDirectionDegrees,WindSpeedMPH,WindSpeedGustMPH,Humidity,HourlyPrecipIn,Conditions,Clouds,dailyrainin,SolarRadiationWatts/m^2,SoftwareType,DateUTC
2013-05-05 00:11:00,62.0,40.0,-100.00,SE,146,10.0,18.0,44,-99.99,,,0.00,0.000000,,2013-05-05 07:11:00,
2013-05-05 00:21:00,62.0,40.0,-100.00,SE,146,10.0,18.0,44,-99.99,,,0.00,0.000000,,2013-05-05 07:21:00,
2013-05-05 00:32:00,62.0,40.0,-100.00,SE,146,10.0,18.0,44,-99.99,,,0.00,0.000000,,2013-05-05 07:32:00,
2013-05-05 00:42:00,62.0,40.0,-100.00,SE,146,10.0,18.0,44,-99.99,,,0.00,0.000000,,2013-05-05 07:42:00,
2013-05-05 00:50:00,58.0,40.0,-100.00,SE,137,13.0,22.0,52,-99.99,,,0.00,0.000000,,2013-05-05 07:50:00,
2013-05-05 01:21:00,58.0,40.0,-100.00,SE,137,13.0,22.0,52,-99.99,,,0.00,0.000000,,2013-05-05 08:21:00,
2013-05-05 01:31:00,58.0,40.0,-100.00,SE,137,13.0,22.0,52,-99.99,,,0.00,0.000000,,2013-05-05 08:31:00,
2013-05-05 01:42:00,58.0,40.0,-100.00,SE,137,13.0,22.0,52,-99.99,,,0.00,0.000000,,2013-05-05 08:42:00,
2013-05-05 01:50:00,53.0,45.0,-100.00,SE,144,12.0,19.0,74,0.00,,,0.00,0.000000,,2013-05-05 08:50:00,
2013-05-05 02:21:00,53.0,45.0,-100.00,SE,144,12.0,19.0,74,0.00,,,0.00,0.000000,,2013-05-05 09:21:00,
2013-05-05 02:32:00,53.0,45.0,-100.00,SE,144,12.0,19.0,74,0.00,,,0.00,0.000000,,2013-05-05 09:32:00,
2013-05-05 02:42:00,53.0,45.0,-100.00,SE,144,12.0,19.0,74,0.00,,,0.00,0.000000,,2013-05-05 09:42:00,
2013-05-05 02:50:00,53.0,46.0,-100.00,SE,136,15.0,24.0,77,0.00,,,0.00,0.000000,,2013-05-05 09:50:00,
2013-05-05 03:12:00,53.0,46.0,-100.00,SE,136,15.0,24.0,77,0.00,,,0.00,0.000000,,2013-05-05 10:12:00,
2013-05-05 03:22:00,53.0,46.0,-100.00,SE,136,15.0,24.0,77,0.00,,,0.00,0.000000,,2013-05-05 10:22:00,
2013-05-05 03:32:00,53.0,46.0,-100.00,SE,136,15.0,24.0,77,0.00,,,0.00,0.000000,,2013-05-05 10:32:00,
2013-05-05 03:42:00,53.0,46.0,-100.00,SE,136,15.0,24.0,77,0.00,,,0.00,0.000000,,2013-05-05 10:42:00,
2013-05-05 03:50:00,53.0,46.0,-100.00,SE,146,14.0,25.0,76,0.00,,,0.00,0.000000,,2013-05-05 10:50:00,
2013-05-05 04:21:00,53.0,46.0,-100.00,SE,146,14.0,25.0,76,0.00,,,0.00,0.000000,,2013-05-05 11:21:00,
2013-05-05 04:32:00,53.0,46.0,-100.00,SE,146,14.0,25.0,76,0.00,,,0.00,0.000000,,2013-05-05 11:32:00,
2013-05-05 04:42:00,53.0,46.0,-100.00,SE,146,14.0,25.0,76,0.00,,,0.00,0.000000,,2013-05-05 11:42:00,
2013-05-05 04:50:00,54.0,46.0,-100.00,SE,137,12.0,24.0,74,0.00,,,0.00,0.000000,,2013-05-05 11:50:00,
2013-05-05 05:11:00,54.0,46.0,-100.00,SE,137,12.0,24.0,74,0.00,,,0.00,0.000000,,2013-05-05 12:11:00,
2013-05-05 05:21:00,54.0,46.0,-100.00,SE,137,12.0,24.0,74,0.00,,,0.00,0.000000,,2013-05-05 12:21:00,
2013-05-05 05:32:00,54.0,46.0,-100.00,SE,137,12.0,24.0,74,0.00,,,0.00,0.000000,,2013-05-05 12:32:00,
2013-05-05 05:42:00,54.0,46.0,-100.00,SE,137,12.0,24.0,74,0.00,,,0.00,0.000000,,2013-05-05 12:42:00,
2013-05-05 05:50:00,54.0,46.0,-100.00,SE,133,13.0,19.0,74,0.00,,,0.00,0.000000,,2013-05-05 12:50:00,
2013-05-05 06:11:00,54.0,46.0,-100.00,SE,133,13.0,19.0,74,0.00,,,0.00,0.000000,,2013-05-05 13:11:00,
2013-05-05 06:21:00,54.0,46.0,-100.00,SE,133,13.0,19.0,74,0.00,,,0.00,0.000000,,2013-05-05 13:21:00,
2013-05-05 06:32:00,54.0,46.0,-100.00,SE,133,13.0,19.0,74,0.00,,,0.00,0.000000,,2013-05-05 13:32:00,
2013-05-05 06:42:00,54.0,46.0,-100.00,SE,133,13.0,19.0,74,0.00,,,0.00,0.000000,,2013-05-05 13:42:00,
2013-05-05 06:50:00,54.0,46.0,-100.00,SE,137,11.0,23.0,74,0.00,,,0.00,9.000000,,2013-05-05 13:50:00,
2013-05-05 07:11:00,54.0,46.0,-100.00,SE,137,11.0,23.0,74,0.00,,,0.00,9.000000,,2013-05-05 14:11:00,
2013-05-05 07:21:00,54.0,46.0,-100.00,SE,137,11.0,23.0,74,0.00,,,0.00,9.000000,,2013-05-05 14:21:00,
2013-05-05 07:31:00,54.0,46.0,-100.00,SE,137,11.0,23.0,74,0.00,,,0.00,9.000000,,2013-05-05 14:31:00,
2013-05-05 07:41:00,54.0,46.0,-100.00,SE,137,11.0,23.0,74,0.00,,,0.00,9.000000,,2013-05-05 14:41:00,
2013-05-05 07:50:00,55.0,46.0,-100.00,SE,138,15.0,22.0,72,0.00,,,0.00,57.000000,,2013-05-05 14:50:00,
2013-05-05 08:11:00,55.0,46.0,-100.00,SE,138,15.0,22.0,72,0.00,,,0.00,57.000000,,2013-05-05 15:11:00,
2013-05-05 08:21:00,55.0,46.0,-100.00,SE,138,15.0,22.0,72,0.00,,,0.00,57.000000,,2013-05-05 15:21:00,
2013-05-05 08:32:00,55.0,46.0,-100.00,SE,138,15.0,22.0,72,0.00,,,0.00,57.000000,,2013-05-05 15:32:00,
2013-05-05 08:43:00,55.0,46.0,-100.00,SE,138,15.0,22.0,72,0.00,,,0.00,57.000000,,2013-05-05 15:43:00,
2013-05-05 08:50:00,56.0,46.0,-100.00,SE,131,12.0,23.0,69,0.00,,,0.00,145.000000,,2013-05-05 15:50:00,
2013-05-05 09:12:00,56.0,46.0,-100.00,SE,131,12.0,23.0,69,0.00,,,0.00,145.000000,,2013-05-05 16:12:00,
2013-05-05 09:22:00,56.0,46.0,-100.00,SE,131,12.0,23.0,69,0.00,,,0.00,145.000000,,2013-05-05 16:22:00,
2013-05-05 09:32:00,56.0,46.0,-100.00,SE,131,12.0,23.0,69,0.00,,,0.00,145.000000,,2013-05-05 16:32:00,
2013-05-05 09:42:00,56.0,46.0,-100.00,SE,131,12.0,23.0,69,0.00,,,0.00,145.000000,,2013-05-05 16:42:00,
2013-05-05 09:50:00,59.0,46.0,-100.00,SE,136,14.0,24.0,62,0.00,,,0.00,354.000000,,2013-05-05 16:50:00,
2013-05-05 10:12:00,59.0,46.0,-100.00,SE,136,14.0,24.0,62,0.00,,,0.00,354.000000,,2013-05-05 17:12:00,
2013-05-05 10:23:00,59.0,46.0,-100.00,SE,136,14.0,24.0,62,0.00,,,0.00,354.000000,,2013-05-05 17:23:00,
2013-05-05 10:32:00,59.0,46.0,-100.00,SE,136,14.0,24.0,62,0.00,,,0.00,354.000000,,2013-05-05 17:32:00,
2013-05-05 10:42:00,59.0,46.0,-100.00,SE,136,14.0,24.0,62,0.00,,,0.00,354.000000,,2013-05-05 17:42:00,
2013-05-05 10:50:00,61.0,44.0,-100.00,SE,143,16.0,26.0,54,0.00,,,0.00,672.000000,,2013-05-05 17:50:00,
2013-05-05 11:11:00,61.0,44.0,-100.00,SE,143,16.0,26.0,54,0.00,,,0.00,672.000000,,2013-05-05 18:11:00,
2013-05-05 11:21:00,61.0,44.0,-100.00,SE,143,16.0,26.0,54,0.00,,,0.00,672.000000,,2013-05-05 18:21:00,
2013-05-05 11:31:00,61.0,44.0,-100.00,SE,143,16.0,26.0,54,0.00,,,0.00,672.000000,,2013-05-05 18:31:00,
2013-05-05 11:42:00,61.0,44.0,-100.00,SE,143,16.0,26.0,54,0.00,,,0.00,672.000000,,2013-05-05 18:42:00,
2013-05-05 11:50:00,59.0,44.0,-100.00,SE,139,15.0,29.0,58,0.00,,,0.00,616.000000,,2013-05-05 18:50:00,
2013-05-05 12:11:00,59.0,44.0,-100.00,SE,139,15.0,29.0,58,0.00,,,0.00,616.000000,,2013-05-05 19:11:00,
2013-05-05 12:21:00,59.0,44.0,-100.00,SE,139,15.0,29.0,58,0.00,,,0.00,616.000000,,2013-05-05 19:21:00,
2013-05-05 12:32:00,59.0,44.0,-100.00,SE,139,15.0,29.0,58,0.00,,,0.00,616.000000,,2013-05-05 19:32:00,
2013-05-05 12:41:00,59.0,44.0,-100.00,SE,139,15.0,29.0,58,0.00,,,0.00,616.000000,,2013-05-05 19:41:00,
2013-05-05 12:50:00,59.0,46.0,-100.00,SE,139,14.0,24.0,63,0.00,,,0.00,401.000000,,2013-05-05 19:50:00,
2013-05-05 13:21:00,59.0,46.0,-100.00,SE,139,14.0,24.0,63,0.00,,,0.00,401.000000,,2013-05-05 20:21:00,
2013-05-05 13:31:00,59.0,46.0,-100.00,SE,139,14.0,24.0,63,0.00,,,0.00,401.000000,,2013-05-05 20:31:00,
2013-05-05 13:41:00,59.0,46.0,-100.00,SE,139,14.0,24.0,63,0.00,,,0.00,401.000000,,2013-05-05 20:41:00,
2013-05-05 13:50:00,60.0,48.0,-100.00,SE,141,13.0,20.0,64,0.00,,,0.00,320.000000,,2013-05-05 20:50:00,
2013-05-05 14:11:00,60.0,48.0,-100.00,SE,141,13.0,20.0,64,0.00,,,0.00,320.000000,,2013-05-05 21:11:00,
2013-05-05 14:21:00,60.0,48.0,-100.00,SE,141,13.0,20.0,64,0.00,,,0.00,320.000000,,2013-05-05 21:21:00,
2013-05-05 14:32:00,60.0,48.0,-100.00,SE,141,13.0,20.0,64,0.00,,,0.00,320.000000,,2013-05-05 21:32:00,
2013-05-05 14:42:00,60.0,48.0,-100.00,SE,141,13.0,20.0,64,0.00,,,0.00,320.000000,,2013-05-05 21:42:00,
2013-05-05 14:50:00,61.0,47.0,-100.00,SE,135,14.0,25.0,60,0.00,,,0.00,304.000000,,2013-05-05 21:50:00,
2013-05-05 15:12:00,61.0,47.0,-100.00,SE,135,14.0,25.0,60,0.00,,,0.00,304.000000,,2013-05-05 22:12:00,
2013-05-05 15:22:00,61.0,47.0,-100.00,SE,135,14.0,25.0,60,0.00,,,0.00,304.000000,,2013-05-05 22:22:00,
2013-05-05 15:33:00,61.0,47.0,-100.00,SE,135,14.0,25.0,60,0.00,,,0.00,304.000000,,2013-05-05 22:33:00,
2013-05-05 15:42:00,61.0,47.0,-100.00,SE,135,14.0,25.0,60,0.00,,,0.00,304.000000,,2013-05-05 22:42:00,
2013-05-05 15:50:00,60.0,45.0,-100.00,South,185,10.0,25.0,58,0.00,,,-99.99,421.000000,,2013-05-05 22:50:00,
2013-05-05 16:11:00,60.0,45.0,-100.00,South,185,10.0,25.0,58,0.00,,,-99.99,421.000000,,2013-05-05 23:11:00,
2013-05-05 16:21:00,60.0,45.0,-100.00,South,185,10.0,25.0,58,0.00,,,-99.99,421.000000,,2013-05-05 23:21:00,
2013-05-05 16:32:00,60.0,45.0,-100.00,South,185,10.0,25.0,58,0.00,,,-99.99,421.000000,,2013-05-05 23:32:00,
2013-05-05 16:42:00,60.0,45.0,-100.00,South,185,10.0,25.0,58,0.00,,,-99.99,421.000000,,2013-05-05 23:42:00,
2013-05-05 16:50:00,60.0,47.0,-100.00,South,174,12.0,16.0,63,0.00,,,0.00,248.000000,,2013-05-05 23:50:00,
2013-05-05 17:11:00,60.0,47.0,-100.00,South,174,12.0,16.0,63,0.00,,,0.00,248.000000,,2013-05-06 00:11:00,
2013-05-05 17:21:00,60.0,47.0,-100.00,South,174,12.0,16.0,63,0.00,,,0.00,248.000000,,2013-05-06 00:21:00,
2013-05-05 17:31:00,60.0,47.0,-100.00,South,174,12.0,16.0,63,0.00,,,0.00,248.000000,,2013-05-06 00:31:00,
2013-05-05 17:41:00,60.0,47.0,-100.00,South,174,12.0,16.0,63,0.00,,,0.00,248.000000,,2013-05-06 00:41:00,
2013-05-05 17:50:00,61.0,48.0,-100.00,SE,133,11.0,20.0,63,0.00,,,0.00,337.000000,,2013-05-06 00:50:00,
2013-05-05 18:11:00,61.0,48.0,-100.00,SE,133,11.0,20.0,63,0.00,,,0.00,337.000000,,2013-05-06 01:11:00,
2013-05-05 18:21:00,61.0,48.0,-100.00,SE,133,11.0,20.0,63,0.00,,,0.00,337.000000,,2013-05-06 01:21:00,
2013-05-05 18:31:00,61.0,48.0,-100.00,SE,133,11.0,20.0,63,0.00,,,0.00,337.000000,,2013-05-06 01:31:00,
2013-05-05 18:41:00,61.0,48.0,-100.00,SE,133,11.0,20.0,63,0.00,,,0.00,337.000000,,2013-05-06 01:41:00,
2013-05-05 18:50:00,59.0,48.0,-100.00,SE,142,8.0,20.0,66,0.00,,,0.00,136.000000,,2013-05-06 01:50:00,
2013-05-05 19:21:00,59.0,48.0,-100.00,SE,142,8.0,20.0,66,0.00,,,0.00,136.000000,,2013-05-06 02:21:00,
2013-05-05 19:32:00,59.0,48.0,-100.00,SE,142,8.0,20.0,66,0.00,,,0.00,136.000000,,2013-05-06 02:32:00,
2013-05-05 19:42:00,59.0,48.0,-100.00,SE,142,8.0,20.0,66,0.00,,,0.00,136.000000,,2013-05-06 02:42:00,
2013-05-05 19:50:00,58.0,48.0,-100.00,SSE,155,6.0,14.0,69,0.00,,,0.00,43.000000,,2013-05-06 02:50:00,
2013-05-05 20:22:00,58.0,48.0,-100.00,SSE,155,6.0,14.0,69,0.00,,,0.00,43.000000,,2013-05-06 03:22:00,
2013-05-05 20:33:00,58.0,48.0,-100.00,SSE,155,6.0,14.0,69,0.00,,,0.00,43.000000,,2013-05-06 03:33:00,
2013-05-05 20:42:00,58.0,48.0,-100.00,SSE,155,6.0,14.0,69,0.00,,,0.00,43.000000,,2013-05-06 03:42:00,
2013-05-05 20:50:00,56.0,47.0,-100.00,SE,142,5.0,11.0,71,0.00,,,0.00,4.000000,,2013-05-06 03:50:00,
2013-05-05 21:23:00,56.0,47.0,-100.00,SE,142,5.0,11.0,71,0.00,,,0.00,4.000000,,2013-05-06 04:23:00,
2013-05-05 21:32:00,56.0,47.0,-100.00,SE,142,5.0,11.0,71,0.00,,,0.00,4.000000,,2013-05-06 04:32:00,
2013-05-05 21:42:00,56.0,47.0,-100.00,SE,142,5.0,11.0,71,0.00,,,0.00,4.000000,,2013-05-06 04:42:00,
2013-05-05 21:50:00,56.0,47.0,-100.00,ESE,122,8.0,12.0,72,0.00,,,0.00,0.000000,,2013-05-06 04:50:00,
2013-05-05 22:12:00,56.0,47.0,-100.00,ESE,122,8.0,12.0,72,0.00,,,0.00,0.000000,,2013-05-06 05:12:00,
2013-05-05 22:22:00,56.0,47.0,-100.00,ESE,122,8.0,12.0,72,0.00,,,0.00,0.000000,,2013-05-06 05:22:00,
2013-05-05 22:32:00,56.0,47.0,-100.00,ESE,122,8.0,12.0,72,0.00,,,0.00,0.000000,,2013-05-06 05:32:00,
2013-05-05 22:42:00,56.0,47.0,-100.00,ESE,122,8.0,12.0,72,0.00,,,0.00,0.000000,,2013-05-06 05:42:00,
2013-05-05 22:50:00,55.0,47.0,-100.00,SE,128,8.0,11.0,75,0.00,,,0.00,0.000000,,2013-05-06 05:50:00,
2013-05-05 23:21:00,55.0,47.0,-100.00,SE,128,8.0,11.0,75,0.00,,,0.00,0.000000,,2013-05-06 06:21:00,
2013-05-05 23:31:00,55.0,47.0,-100.00,SE,128,8.0,11.0,75,0.00,,,0.00,0.000000,,2013-05-06 06:31:00,
2013-05-05 23:41:00,55.0,47.0,-100.00,SE,128,8.0,11.0,75,0.00,,,0.00,0.000000,,2013-05-06 06:41:00,
2013-05-05 23:50:00,55.0,47.0,-100.00,North,354,4.0,8.0,75,0.00,,,0.00,0.000000,,2013-05-06 06:50:00,